Humidity-temperature Sensor

Selected Measurement Type: Relative Humidity

 
Relative Humidity [%]     6 entries per hour
Showing data from 11/28/2022 (00:00:00 Z) to 11/27/2022 (00:01:00 Z)
Previous Next [ Day | 3-Days | 7-Days ]
First Last
Prev [ Day | 3-Days | 7-Days ] Next
First Last

Start Time:     :
End Time:     :     
Time (in GMT) :00 :50 :40 :30 :20 :10
Previous Next [ Day | 3-Days | 7-Days ]
First Last
Prev [ Day | 3-Days | 7-Days ] Next
First Last


123 => good data
MM => data is determined as missing
-- => data not received/configured
Back to Top Back to Top
11/28/2022 00:00 to 23:10 91.56 91.54 91.29 91.35 91.42 90.92
11/27/2022 23:00 to 22:10 90.31 90.24 90.35 90.63 90.88 91.13
11/27/2022 22:00 to 21:10 90.86 90.53 89.90 89.73 89.07 88.70
11/27/2022 21:00 to 20:10 89.34 90.24 91.00 91.72 91.89 92.05
11/27/2022 20:00 to 19:10 91.54 90.22 89.59 90.33 91.60 92.50
11/27/2022 19:00 to 18:10 93.78 94.93 95.14 95.20 94.09 92.85
11/27/2022 18:00 to 17:10 90.31 88.77 88.87 89.34 89.94 89.85
11/27/2022 17:00 to 16:10 89.69 88.99 88.50 88.72 89.09 89.28
11/27/2022 16:00 to 15:10 89.42 90.20 91.56 91.62 90.29 90.00
11/27/2022 15:00 to 14:10 89.69 90.20 91.31 92.01 92.44 92.20
11/27/2022 14:00 to 13:10 91.31 90.43 90.74 91.25 91.56 91.70
11/27/2022 13:00 to 12:10 91.25 90.84 91.19 91.70 91.95 92.36
11/27/2022 12:00 to 11:10 92.77 92.87 92.53 92.44 92.57 92.57
11/27/2022 11:00 to 10:10 92.90 92.67 92.46 91.68 92.03 92.30
11/27/2022 10:00 to 9:10 93.33 93.57 93.29 93.47 93.61 93.84
11/27/2022 09:00 to 8:10 94.21 93.96 93.02 92.09 90.57 89.32
11/27/2022 08:00 to 7:10 88.42 88.85 89.57 90.45 90.86 90.72
11/27/2022 07:00 to 6:10 90.76 89.98 88.89 88.03 88.72 89.18
11/27/2022 06:00 to 5:10 89.34 89.36 89.18 89.01 89.03 88.58
11/27/2022 05:00 to 4:10 88.74 89.09 90.06 91.17 92.30 93.08
11/27/2022 04:00 to 3:10 93.66 93.76 93.41 92.46 91.48 91.40
11/27/2022 03:00 to 2:10 91.48 91.40 90.94 91.58 92.07 92.11
11/27/2022 02:00 to 1:10 91.42 90.22 89.75 90.63 91.46 92.24
11/27/2022 01:00 to 0:10 93.22 93.90 94.19 93.51 94.07 94.72